Regional Weather Roundup
Issued by NWS Goodland, KS

Current Version | Previous Version | Text Only | Print | Product List | Glossary On
Versions: 1 2 3 4 5 6 7 8 9 10 11 12 13 14 15 16 17 18 19 20 21 22 23 24 25 26 27 28 29 30 31 32 33 34 35 36 37 38 39 40 41 42 43 44 45 46 47 48 49 50
000
ASUS43 KGLD 032108
RWRGLD

GOODLAND FORECAST AREA HOURLY WEATHER ROUNDUP
NATIONAL WEATHER SERVICE GOODLAND KS
300 PM MDT WED JUN 03 2015

...OFFICIAL OBSERVATIONS...

CITY           SKY/WX    TMP DP  RH WIND       PRES   REMARKS
GOODLAND KS    MOSUNNY   78  60  53 E12       29.94F
HILL CITY KS   MOSUNNY   81  65  58 E12       29.88F
IMPERIAL NEB   PTSUNNY   76  57  51 E10       29.96S
MCCOOK NEB     PTSUNNY   82  60  47 E10       29.91F
AKRON CO       MOSUNNY   74  55  51 E9        30.00F
BURLINGTON CO    N/A     76  57  51 E15       29.97F
LIMON CO       PTSUNNY   70  56  61 E14       30.03F
$$

...UNOFFICIAL OBSERVATIONS...

CITY           SKY/WX    TMP DP  RH WIND       PRES   REMARKS
COLBY KS       PTSUNNY   81  64  57 E10G17    29.93S
GOVE KS          N/A     79  32  18 MISG        N/A
NORTON KS      PTSUNNY   81  52  36 E12       29.89
SHARON SPRINGS   N/A     75  65  71 MISG        N/A
KIT CARSON CO    N/A     74  59  59 MISG        N/A
$$



USA.gov is the U.S. government's official web portal to all federal, state and local government web resources and services.